Tracking 19644 objects as of 24-Apr-2019
HD Live streaming from Space Station
objects crossing your sky now

SL-12 R/B(2)

Track SL-12 R/B(2) now!


NORAD ID: 19076
Int'l Code: 1988-034D
Perigee: 35,745.9 km
Apogee: 35,927.1 km
Inclination: 14.5 °
Period: 1,438.3 minutes
Semi major axis: 42207 km
RCS: 2.2161 m2 (large)
Launch date: April 26, 1988
Source: Commonwealth of Independent States (former USSR) (CIS)
Launch site: TYURATAM MISSILE AND SPACE COMPLEX (TTMTR)

Note: This is a ROCKET BODY
aabbcc
Your satellite tracking list
Your tracking list is empty




NASA's NSSDC Master Catalog

Two Line Element Set (TLE):
1 19076U 88034D   19112.88516170 -.00000151 +00000-0 +00000-0 0  9994
2 19076 014.4777 348.9675 0021466 112.1455 057.3224 01.00119392112952
Source of the keplerian elements: AFSPC